[[{"header":{"parameterUnit":"m.s-1","parameterCategory":1,"la1":30.2991,"la2":30.254,"lo1":-89.0895,"lo2":-89.0444,"dy":0.0017,"dx":0.0017,"nx":28,"ny":28,"refTime":"2025-08-19T21:00:00:Z","depth":0,"parameterNumber":2,"parameterNumberName":"U-component_of_WINDS"},"data":[0,0,0,0,0,0,0,0,0,0,0,0,0,0,0,0,0,0,0,0,0,0,0,0,0,0,0,0,0,0,0,0,0,0,0,0,0,0,0,0,0,0,0,0,0,0,0,0,0,0,0,0,0,0,0,0,0,0,-1.1827,-1.1827,0,-1.1821,-1.1821,-1.1821,-1.1843,-1.1843,-1.1844,-1.1845,-1.1837,-1.1836,-1.1835,0,0,0,0,0,0,0,0,0,0,0,0,0,-1.1857,-1.1857,-1.1827,-1.1827,-1.1827,-1.1821,-1.1821,-1.1821,-1.1843,-1.1843,-1.1844,-1.1845,-1.1837,-1.1836,-1.1835,0,0,0,0,0,0,0,0,0,0,0,0,0,-1.1847,-1.1857,-1.1827,-1.1837,-1.1838,-1.1821,-1.1821,-1.1821,-1.1842,-1.1843,-1.1844,-1.1845,-1.1837,-1.1836,-1.1835,-1.1807,0,0,-1.1831,-1.183,0,0,0,0,0,0,0,0,-1.1848,-1.1846,-1.1836,-1.1837,-1.1837,-1.1834,-1.1829,-1.1816,-1.1842,-1.1841,-1.1845,-1.1846,-1.1835,-1.1834,-1.183,-1.1807,-1.1807,-1.1831,-1.183,-1.183,-1.1829,0,0,0,0,0,0,0,-1.1848,-1.1846,-1.1825,-1.1836,-1.1837,-1.1842,-1.1841,-1.1826,-1.1832,-1.1841,-1.1842,-1.1842,-1.1835,-1.1831,-1.183,-1.1806,-1.1831,-1.183,-1.1829,-1.1829,-1.1762,-1.1761,0,0,0,0,0,0,-1.1848,-1.1847,-1.1825,-1.1825,-1.1845,-1.1841,-1.184,-1.1834,-1.1832,-1.1833,-1.1841,-1.1843,-1.1833,-1.1832,-1.183,-1.1799,-1.183,-1.1828,-1.1828,-1.1763,-1.1762,-1.1761,0,0,0,0,0,0,-1.1848,-1.1846,-1.1825,-1.1836,-1.1834,-1.1839,-1.1832,-1.1833,-1.1829,-1.1832,-1.1833,-1.1836,-1.1834,-1.1832,-1.1813,-1.1799,-1.1828,-1.1827,-1.1764,-1.1763,-1.1761,-1.1736,0,0,0,0,0,0,-1.1849,-1.1846,-1.1835,-1.1836,-1.1833,-1.1808,-1.1831,-1.1832,-1.1827,-1.183,-1.1828,-1.1829,-1.1834,-1.1815,-1.1812,-1.1798,-1.1826,-1.1765,-1.1763,-1.1762,-1.1738,-1.1733,-1.173,0,0,0,0,0,-1.185,-1.1828,-1.1835,-1.1832,-1.182,-1.1808,-1.1806,-1.1814,-1.1826,-1.1816,-1.1818,-1.1829,-1.1801,-1.1813,-1.181,-1.1795,-1.1766,-1.1764,-1.1762,-1.174,-1.1734,-1.173,0,0,0,0,0,0,-1.1824,-1.1828,-1.1836,-1.1813,-1.181,-1.1811,-1.1798,-1.1808,-1.1801,-1.1803,-1.1813,-1.1812,-1.1792,-1.1792,-1.1805,-1.1769,-1.1786,-1.1783,-1.177,-1.1765,-1.1761,-1.1762,-1.1825,0,0,0,0,0,-1.1816,-1.1806,-1.1809,-1.1789,-1.1787,-1.1793,-1.1788,-1.1794,-1.1791,-1.179,-1.179,-1.1787,-1.1778,-1.1771,-1.1763,-1.1738,-1.1738,-1.1726,-1.1722,-1.1719,-1.1716,-1.1704,-1.1699,-1.1753,-1.1753,-1.1753,0,0,-1.1799,-1.1799,-1.1792,-1.1784,-1.1782,-1.1771,-1.1792,-1.1779,-1.1771,-1.1788,-1.1771,-1.1771,-1.1768,-1.1747,-1.1737,-1.1745,-1.1702,-1.1716,-1.1713,-1.1712,-1.1702,-1.1696,-1.1692,-1.1751,-1.1752,-1.1752,0,0,-1.1762,-1.1761,-1.1745,-1.1743,-1.1741,-1.1745,-1.1741,-1.1742,-1.1743,-1.1726,-1.1739,-1.173,-1.1713,-1.1711,-1.1708,-1.1672,-1.1682,-1.1669,-1.1647,-1.1636,-1.1632,-1.1628,-1.1616,-1.1612,-1.1666,-1.1666,-1.1666,0,-1.174,-1.1725,-1.1735,-1.1722,-1.1718,-1.1734,-1.1717,-1.1715,-1.171,-1.1707,-1.1717,-1.1698,-1.1696,-1.1675,-1.1667,-1.1663,-1.1659,-1.1669,-1.1632,-1.1628,-1.1625,-1.1613,-1.1609,-1.1664,-1.1664,-1.1665,-1.1665,0,-1.1699,-1.1688,-1.1675,-1.1671,-1.1666,-1.1651,-1.1659,-1.1652,-1.1659,-1.1663,-1.1646,-1.1646,-1.1638,-1.1634,-1.164,-1.1614,-1.1619,-1.163,-1.1647,-1.1618,-1.1608,-1.1603,-1.1662,-1.1663,-1.1663,-1.1663,0,0,-1.1645,-1.1648,-1.1643,-1.1642,-1.1641,-1.1633,-1.1619,-1.1613,-1.1608,-1.1604,-1.1593,-1.158,-1.159,-1.1586,-1.1593,-1.1583,-1.1556,-1.1595,-1.1595,-1.1588,-1.1528,-1.152,-1.1515,-1.1562,-1.1562,-1.1561,-1.1529,0,-1.1609,-1.1586,-1.1596,-1.1572,-1.1563,-1.1578,-1.1567,-1.1565,-1.1568,-1.1561,-1.1564,-1.1555,-1.1569,-1.1567,-1.1558,-1.1561,-1.1544,-1.1563,-1.1553,-1.1552,-1.1554,-1.151,-1.1501,-1.1471,-1.1525,-1.1524,-1.1524,0,-1.1564,-1.156,-1.1536,-1.1539,-1.1535,-1.1525,-1.152,-1.1513,-1.1512,-1.1515,-1.1512,-1.1521,-1.1508,-1.1525,-1.1508,-1.1521,-1.1518,-1.1519,-1.1518,-1.1517,-1.1536,-1.1509,-1.1461,-1.1457,-1.1517,-1.1518,-1.1518,0,-1.1528,-1.1516,-1.1501,-1.15,-1.1502,-1.1495,-1.1495,-1.1496,-1.1492,-1.1488,-1.1485,-1.1479,-1.1476,-1.1472,-1.148,-1.1491,-1.1462,-1.1479,-1.1465,-1.1464,-1.1458,-1.1458,-1.1409,-1.1454,-1.1454,-1.1454,-1.1455,0,-1.1488,-1.1472,-1.1485,-1.1476,-1.146,-1.147,-1.1454,-1.1456,-1.1457,-1.1448,-1.1461,-1.1453,-1.1463,-1.1456,-1.1462,-1.1447,-1.1446,-1.1448,-1.145,-1.1447,-1.1447,-1.1445,-1.1448,-1.1453,-1.1454,-1.1454,-1.1454,0,-1.1444,-1.1452,-1.1437,-1.1441,-1.1442,-1.143,-1.1434,-1.1425,-1.143,-1.1419,-1.1417,-1.1424,-1.1417,-1.1424,-1.1416,-1.142,-1.1402,-1.1406,-1.1402,-1.1404,-1.1389,-1.139,-1.1338,-1.1332,-1.138,-1.1379,-1.1379,0,-1.1418,-1.1407,-1.1411,-1.1407,-1.1407,-1.1399,-1.1396,-1.1406,-1.1402,-1.1402,-1.1393,-1.1387,-1.1383,-1.137,-1.1374,-1.1369,-1.1374,-1.1356,-1.1373,-1.1371,-1.1375,-1.1375,-1.1375,-1.1352,-1.1352,-1.1351,-1.1351,0,-1.1371,-1.1376,-1.1371,-1.1367,-1.1363,-1.136,-1.1359,-1.1354,-1.1366,-1.136,-1.1353,-1.135,-1.1343,-1.1337,-1.1333,-1.1334,-1.1344,-1.1345,-1.1342,-1.1339,-1.1338,-1.1339,-1.1393,-1.1347,-1.1347,-1.1347,-1.1347,-1.1348,-1.1336,-1.1328,-1.133,-1.1324,-1.1324,-1.1323,-1.1316,-1.132,-1.1314,-1.131,-1.1317,-1.1308,-1.1309,-1.1306,-1.1305,-1.1299,-1.1307,-1.1301,-1.13,-1.1299,-1.1297,-1.1339,-1.1298,-1.1298,-1.1298,-1.1299,-1.1299,0,-1.1291,-1.1293,-1.1288,-1.1286,-1.1281,-1.1292,-1.1292,-1.1287,-1.128,-1.128,-1.1276,-1.1268,-1.1263,-1.1268,-1.1263,-1.1257,-1.1262,-1.1256,-1.1257,-1.1257,-1.129,-1.1294,-1.1252,-1.1252,-1.1252,-1.1252,-1.1252,-1.1252,-1.1266,-1.1253,-1.1258,-1.1246,-1.1248,-1.1241,-1.124,-1.1239,-1.1239,-1.123,-1.1226,-1.123,-1.1232,-1.1228,-1.1224,-1.1226,-1.1224,-1.1216,-1.1219,-1.125,-1.1255,-1.1259,-1.1263,-1.1216,-1.1215,-1.1188,-1.1187,-1.1187]},{"header":{"parameterUnit":"m.s-1","parameterCategory":1,"la1":30.2991,"la2":30.254,"lo1":-89.0895,"lo2":-89.0444,"dy":0.0017,"dx":0.0017,"nx":28,"ny":28,"refTime":"2025-08-19T21:00:00:Z","depth":0,"parameterNumber":3,"parameterNumberName":"V-component_of_WINDS"},"data":[0,0,0,0,0,0,0,0,0,0,0,0,0,0,0,0,0,0,0,0,0,0,0,0,0,0,0,0,0,0,0,0,0,0,0,0,0,0,0,0,0,0,0,0,0,0,0,0,0,0,0,0,0,0,0,0,0,0,0.8533,0.8533,0,0.8552,0.8553,0.8553,0.8536,0.8535,0.8534,0.8534,0.8552,0.8553,0.8554,0,0,0,0,0,0,0,0,0,0,0,0,0,0.8478,0.8479,0.8533,0.8533,0.8533,0.8552,0.8553,0.8553,0.8536,0.8535,0.8534,0.8533,0.8551,0.8553,0.8554,0,0,0,0,0,0,0,0,0,0,0,0,0,0.85,0.848,0.8533,0.8527,0.8527,0.8552,0.8553,0.8553,0.8536,0.8535,0.8534,0.8533,0.8551,0.8552,0.8554,0.8586,0,0,0.8559,0.856,0,0,0,0,0,0,0,0,0.8499,0.8502,0.8528,0.8528,0.8527,0.854,0.854,0.8564,0.8536,0.8532,0.8534,0.8532,0.8549,0.855,0.8556,0.8586,0.8587,0.8559,0.8561,0.8561,0.8562,0,0,0,0,0,0,0,0.8498,0.8501,0.8541,0.8528,0.8528,0.8523,0.8525,0.8544,0.8546,0.8533,0.8531,0.8534,0.8548,0.8555,0.8557,0.8587,0.8559,0.8561,0.8562,0.8563,0.8641,0.8642,0,0,0,0,0,0,0.8497,0.85,0.854,0.8541,0.851,0.8525,0.8527,0.8537,0.8546,0.8546,0.8535,0.8533,0.8552,0.8555,0.8557,0.8592,0.8561,0.8563,0.8564,0.864,0.8641,0.8643,0,0,0,0,0,0,0.8496,0.8501,0.8539,0.852,0.8525,0.8527,0.8539,0.8538,0.8545,0.8548,0.8548,0.8541,0.8552,0.8555,0.8578,0.8593,0.8564,0.8565,0.8639,0.8641,0.8642,0.8664,0,0,0,0,0,0,0.8494,0.85,0.8513,0.8521,0.8526,0.8561,0.854,0.8539,0.8548,0.8546,0.8554,0.8554,0.8551,0.8576,0.858,0.8594,0.8566,0.8638,0.864,0.8642,0.8662,0.8666,0.8669,0,0,0,0,0,0.8492,0.8519,0.8514,0.8519,0.8542,0.8562,0.8564,0.8561,0.8549,0.8561,0.8563,0.8554,0.8591,0.8578,0.8583,0.8598,0.8637,0.8639,0.8641,0.866,0.8665,0.8669,0,0,0,0,0,0,0.8512,0.852,0.8514,0.8544,0.8552,0.8559,0.8574,0.8567,0.8578,0.8576,0.8571,0.8573,0.8597,0.86,0.8586,0.8627,0.8612,0.8615,0.8624,0.8629,0.8633,0.863,0.8568,0,0,0,0,0,0.852,0.8536,0.8542,0.8567,0.8572,0.8572,0.858,0.8577,0.8585,0.8589,0.8592,0.86,0.8613,0.8621,0.8634,0.8663,0.8663,0.8675,0.8679,0.8682,0.8685,0.8697,0.8702,0.865,0.865,0.865,0,0,0.8537,0.8543,0.8553,0.8571,0.8577,0.8592,0.8575,0.8593,0.8603,0.8591,0.8612,0.8615,0.8623,0.8649,0.866,0.8652,0.8699,0.8685,0.8688,0.8688,0.87,0.8705,0.871,0.8652,0.8652,0.8652,0,0,0.8573,0.8581,0.8602,0.8608,0.8617,0.8617,0.8622,0.8629,0.863,0.8652,0.8642,0.8655,0.8679,0.8684,0.869,0.8727,0.8718,0.8732,0.8751,0.8764,0.8768,0.8771,0.8782,0.8787,0.8735,0.8735,0.8735,0,0.8592,0.8616,0.8613,0.863,0.8638,0.8628,0.8647,0.8654,0.8667,0.8671,0.8663,0.869,0.8695,0.872,0.8729,0.8736,0.8739,0.873,0.8768,0.8771,0.8774,0.8785,0.8789,0.8736,0.8736,0.8736,0.8736,0,0.8637,0.8653,0.8669,0.8681,0.869,0.8709,0.8708,0.8717,0.8713,0.8714,0.8735,0.874,0.8753,0.8759,0.8755,0.8783,0.8777,0.8769,0.8752,0.8781,0.879,0.8794,0.8738,0.8737,0.8737,0.8737,0,0,0.8686,0.8696,0.8701,0.8706,0.8715,0.8727,0.8744,0.8757,0.8764,0.8773,0.8786,0.8806,0.8797,0.8803,0.88,0.8812,0.8838,0.8801,0.8801,0.8805,0.8866,0.8871,0.8876,0.8833,0.8834,0.8835,0.8864,0,0.8721,0.8752,0.8749,0.8778,0.8791,0.8781,0.8796,0.8803,0.8804,0.8815,0.8816,0.8828,0.8817,0.8821,0.8832,0.8832,0.885,0.8831,0.8843,0.8844,0.8839,0.8881,0.8887,0.8915,0.8868,0.8869,0.887,0,0.8766,0.8776,0.8805,0.8811,0.8816,0.883,0.8839,0.8851,0.8858,0.8857,0.8864,0.8859,0.8875,0.886,0.8881,0.8868,0.8873,0.8874,0.8875,0.8874,0.8857,0.8879,0.8924,0.8927,0.8876,0.8875,0.8875,0,0.8795,0.8816,0.8836,0.884,0.8848,0.8857,0.886,0.8866,0.8873,0.8882,0.8886,0.8897,0.8902,0.891,0.8906,0.8896,0.8927,0.8912,0.8926,0.8926,0.8931,0.893,0.8975,0.8938,0.8938,0.8938,0.8938,0,0.8832,0.885,0.8849,0.8861,0.888,0.8877,0.8896,0.8898,0.8903,0.8914,0.8907,0.8918,0.8914,0.8924,0.8922,0.8939,0.8942,0.8941,0.8939,0.894,0.894,0.8941,0.8939,0.8939,0.8939,0.8939,0.8939,0,0.8867,0.8867,0.8888,0.8893,0.8895,0.8908,0.8912,0.8923,0.8923,0.8937,0.8941,0.8941,0.8952,0.895,0.8963,0.8962,0.8981,0.8979,0.8979,0.8978,0.899,0.8988,0.9036,0.9041,0.9003,0.9004,0.9004,0,0.889,0.8903,0.891,0.8917,0.8921,0.8933,0.8939,0.8937,0.8944,0.8952,0.8961,0.8972,0.898,0.8999,0.8999,0.9009,0.9005,0.9021,0.9006,0.9006,0.9002,0.9,0.9001,0.9023,0.9023,0.9024,0.9024,0,0.8929,0.8928,0.8939,0.8949,0.8957,0.8965,0.8972,0.8978,0.8976,0.8984,0.8995,0.9002,0.9015,0.9025,0.9033,0.9036,0.9029,0.9029,0.9032,0.9032,0.903,0.9029,0.8984,0.9027,0.9027,0.9027,0.9027,0.9027,0.8957,0.8968,0.8973,0.8984,0.8989,0.8996,0.9005,0.9007,0.9017,0.9027,0.9025,0.9037,0.9042,0.9053,0.9056,0.9065,0.9059,0.9064,0.9065,0.9066,0.9066,0.9031,0.9067,0.9067,0.9067,0.9067,0.9067,0,0.8994,0.8997,0.9007,0.9017,0.9025,0.9019,0.9027,0.9034,0.9045,0.905,0.9058,0.9071,0.908,0.9082,0.9091,0.9098,0.9095,0.91,0.9098,0.9098,0.9072,0.9068,0.9102,0.9102,0.9102,0.9102,0.9102,0.9102,0.9014,0.903,0.903,0.9049,0.9052,0.9064,0.9068,0.9073,0.9078,0.9092,0.91,0.9101,0.9104,0.9113,0.9121,0.9121,0.9124,0.913,0.9129,0.9104,0.91,0.9097,0.9092,0.9131,0.9131,0.9153,0.9154,0.9154]}]]